Terminal Aerodrome Forecast
Issued by NWS

Home | Current Version | Previous Version | Text Only | Print | Product List | Glossary On
Versions: 1 2 3 4 5 6 7 8 9 10 11 12 13 14 15 16 17 18 19
000
FTUS42 KFFC 260935 AAA
TAFPDK
TAF AMD
KPDK 260935Z 2610/2706 27006KT P6SM BKN025
     FM261100 29010KT P6SM OVC015
     FM261500 31012G22KT P6SM BKN025
     FM261800 31014G24KT P6SM BKN050
     FM270000 31009KT P6SM SCT060 BKN120=

USA.gov is the U.S. government's official web portal to all federal, state and local government web resources and services.